DateTimeUTC,F1_A11,F1_S11,BsB_S11,BsG_S11,BsR_S11,BbsB_S11,BbsG_S11,BbsR_S11,BaB_A11,BaG_A11,BaR_A11,Tu_S11,T_S11,Uu_S11,U_S11,P_S11,T1_A11
2021-06-21T08:00:00Z,00000200,21000000,,,,,,,0000.17,0000.21,-000.17,17.1,24.4,01.3,00.8,0666.3,31.0
2021-06-21T08:01:00Z,00000200,21000000,,,,,,,0000.15,0000.21,0000.17,17.2,24.4,01.2,00.8,0666.3,31.1
2021-06-21T08:02:00Z,00000200,21000000,,,,,,,0000.10,0000.15,0000.03,17.2,24.4,01.2,00.8,0666.3,31.0
2021-06-21T08:03:00Z,00000200,61000000,,,,,,,0001.98,0001.68,0001.47,17.2,24.4,01.2,00.8,0666.3,31.0
2021-06-21T08:04:00Z,00000200,41000000,0000.35,-000.10,0000.27,-000.38,0000.15,0000.31,0001.42,0001.19,0000.86,17.6,24.4,01.6,01.0,0667.3,31.0
2021-06-21T08:05:00Z,00000200,01000000,0000.43,0000.16,0000.02,-000.23,0000.12,-000.04,0001.94,0002.10,0001.36,17.6,24.3,01.7,01.1,0667.3,31.0
2021-06-21T08:06:00Z,00000200,01000000,0000.72,0000.38,0000.31,-000.50,0000.08,0000.05,0002.43,0001.77,0001.69,17.6,24.3,01.9,01.2,0667.3,31.0
2021-06-21T08:07:00Z,00000200,00000000,0000.33,0000.08,0000.00,-000.28,0000.09,0000.14,0002.15,0002.35,0001.23,17.6,24.3,01.9,01.3,0667.3,31.0
2021-06-21T08:08:00Z,00000200,00000000,0000.00,0000.31,0000.11,0000.13,0000.20,-000.28,0002.38,0002.32,0001.81,17.5,24.2,01.9,01.3,0667.3,31.0
2021-06-21T08:09:00Z,00000200,00000000,0000.35,0000.38,0000.10,-000.12,-000.12,-000.00,0001.85,0001.37,0001.11,17.5,24.2,01.9,01.2,0667.3,31.0
2021-06-21T08:10:00Z,00000200,00000000,0000.03,0000.26,0000.34,-000.38,0000.14,0000.31,0000.43,0000.54,0000.71,17.5,24.2,01.9,01.3,0667.3,31.0
2021-06-21T08:11:00Z,00000200,01000000,-000.20,0000.16,-000.27,-000.30,-000.18,-000.16,0001.45,0000.66,0000.60,17.5,24.2,01.9,01.3,0667.3,31.0
2021-06-21T08:12:00Z,00000200,01000000,0000.00,0000.43,0000.21,0000.36,-000.26,0000.16,0000.93,0001.30,0000.51,17.4,24.1,01.9,01.2,0667.3,31.0
2021-06-21T08:13:00Z,00000200,00000000,0000.37,0000.18,0000.07,0000.12,0000.18,0000.07,0001.76,0001.46,0001.28,17.4,24.1,02.0,01.3,0667.3,31.0
2021-06-21T08:14:00Z,00000200,01000000,0000.92,-000.06,0000.02,-000.12,-000.17,-000.03,0002.02,0001.72,0001.38,17.4,24.1,01.9,01.3,0667.3,31.0
2021-06-21T08:15:00Z,00000200,01000000,-000.05,0000.03,0000.30,0000.26,0000.16,0000.05,0002.05,0002.03,0001.23,17.5,24.2,01.9,01.3,0667.3,31.0
2021-06-21T08:16:00Z,00000200,01000000,-000.85,-000.02,0000.21,-000.57,0000.23,-000.10,0003.51,0003.09,0002.76,17.5,24.2,01.9,01.3,0667.3,31.0
2021-06-21T08:17:00Z,00000200,00000000,0001.13,0000.10,0000.46,0000.03,-000.15,0000.26,0004.49,0004.38,0003.14,17.5,24.2,01.8,01.2,0667.3,31.0
2021-06-21T08:18:00Z,00000200,01000000,0000.85,0000.25,0000.22,-000.03,0000.24,0000.10,0005.55,0004.60,0003.66,17.5,24.2,01.8,01.2,0667.3,31.0
2021-06-21T08:19:00Z,00000200,01000000,0000.83,0000.62,0000.51,-000.22,0000.39,0000.16,0011.66,0010.63,0008.21,17.5,24.2,01.8,01.2,0667.3,31.0
2021-06-21T08:20:00Z,00000200,01000000,0000.66,0000.49,0000.48,-000.29,-000.07,-000.03,0010.44,0009.12,0007.17,17.5,24.1,01.7,01.1,0667.3,31.0
2021-06-21T08:21:00Z,00000200,01000000,0000.71,0000.13,-000.06,-000.10,-000.37,0000.28,0005.02,0004.87,0003.73,17.4,24.1,01.7,01.1,0667.3,31.0
2021-06-21T08:22:00Z,00000200,01000000,0000.17,0000.11,0000.43,0000.55,0000.14,0000.18,0004.07,0004.25,0003.16,17.4,24.1,01.5,01.0,0667.3,31.0
2021-06-21T08:23:00Z,00000200,01000000,-000.00,0000.27,0000.25,0000.22,0000.02,-000.19,0002.72,0002.22,0001.68,17.4,24.1,01.6,01.1,0667.3,31.0
2021-06-21T08:24:00Z,00000200,01000000,0000.36,0000.36,0000.14,0000.24,0000.17,0000.11,0002.98,0002.39,0001.50,17.4,24.1,01.7,01.1,0667.3,31.0
2021-06-21T08:25:00Z,00000200,01000000,0000.30,0000.14,0000.24,0000.21,0000.17,0000.03,0005.14,0004.76,0003.67,17.3,24.1,01.5,01.0,0667.3,31.0
2021-06-21T08:26:00Z,00000200,01000000,-000.21,0000.21,0000.14,0000.30,-000.08,-000.09,0005.46,0005.00,0003.94,17.3,24.0,01.7,01.1,0667.3,31.0
2021-06-21T08:27:00Z,00000200,01000000,0000.24,0000.36,-000.10,-000.47,-000.09,0000.33,0003.85,0003.37,0002.31,17.3,24.0,01.8,01.2,0667.3,31.0
2021-06-21T08:28:00Z,00000200,01000000,-000.45,0000.04,0000.08,0000.20,0000.03,0000.01,0004.19,0004.07,0003.40,17.3,24.0,01.8,01.2,0667.3,31.0
2021-06-21T08:29:00Z,00000200,00000000,0000.02,0000.51,-000.06,0000.29,0000.12,-000.07,0004.52,0003.43,0003.24,17.3,24.0,01.9,01.2,0667.3,31.0
2021-06-21T08:30:00Z,00000200,01000000,-000.23,0000.35,0000.37,-000.51,0000.06,-000.16,0004.63,0004.46,0002.76,17.3,24.0,01.9,01.2,0667.3,31.0
2021-06-21T08:31:00Z,00000200,01000000,0000.89,0000.25,0000.37,0000.06,0000.04,0000.22,0003.09,0002.77,0002.30,17.4,24.1,02.0,01.3,0667.3,31.0
2021-06-21T08:32:00Z,00000200,01000000,0000.83,0000.35,0000.03,-000.14,0000.01,0000.29,0001.76,0001.81,0001.35,17.4,24.0,01.9,01.3,0667.3,31.0
2021-06-21T08:33:00Z,00000200,01000000,0000.67,0000.31,0000.25,0000.03,0000.23,-000.12,0002.43,0002.04,0001.72,17.4,24.1,01.7,01.1,0667.3,31.0
2021-06-21T08:34:00Z,00000200,01000000,-000.33,0000.11,0000.09,-000.30,0000.19,0000.12,0001.94,0001.96,0001.39,17.4,24.0,01.7,01.1,0667.3,31.0
2021-06-21T08:35:00Z,00000200,01000000,0000.02,0000.02,0000.47,-000.09,0000.07,0000.21,0000.76,0000.72,-000.05,17.3,24.0,01.6,01.1,0667.3,31.0
2021-06-21T08:36:00Z,00000200,01000000,0000.18,-000.00,0000.13,-000.39,-000.14,0000.26,0000.16,-000.05,0000.83,17.3,24.0,01.6,01.1,0667.3,31.0
2021-06-21T08:37:00Z,00000200,01000000,0000.33,0000.31,0000.17,-000.25,-000.09,0000.07,0000.26,0000.42,0000.46,17.3,24.0,01.6,01.1,0667.3,31.0
2021-06-21T08:38:00Z,00000200,01000000,-000.01,0000.16,-000.04,-000.45,0000.02,0000.17,0001.03,0001.15,0000.43,17.2,24.0,01.5,01.0,0667.3,31.0
2021-06-21T08:39:00Z,00000200,01000000,0000.18,0000.13,-000.12,0000.22,-000.02,-000.25,0003.16,0002.78,0001.90,17.2,23.9,01.6,01.0,0667.3,30.9
2021-06-21T08:40:00Z,00000200,01000000,0000.72,0000.51,0000.14,0000.22,0000.01,-000.15,0001.34,0001.17,0001.41,17.2,23.9,01.6,01.0,0667.3,30.9
2021-06-21T08:41:00Z,00000200,01000000,0000.19,0000.11,0000.04,0000.09,0000.10,0000.20,0002.71,0002.21,0001.53,17.2,23.9,01.7,01.1,0667.3,30.9
2021-06-21T08:42:00Z,00000200,01000000,0000.13,0000.46,0000.59,0000.74,0000.11,0000.16,0006.80,0005.88,0004.44,17.2,23.9,01.6,01.1,0667.3,30.9
2021-06-21T08:43:00Z,00000200,01000000,0000.14,0000.09,0000.12,0000.13,-000.09,-000.10,0007.71,0007.24,0005.55,17.1,23.9,01.8,01.2,0667.3,31.0
2021-06-21T08:44:00Z,00000200,01000000,0000.18,-000.03,0000.11,-000.45,0000.01,0000.15,0006.09,0005.34,0004.26,17.1,23.9,01.9,01.2,0667.4,31.0
2021-06-21T08:45:00Z,00000200,01000000,0000.61,0000.43,0000.19,-000.16,0000.12,-000.09,0007.73,0007.00,0005.40,17.2,23.9,01.8,01.2,0667.4,31.0
2021-06-21T08:46:00Z,00000200,01000000,0000.43,0000.60,0000.23,0000.05,0000.10,0000.08,0011.77,0010.85,0008.22,17.3,23.9,01.9,01.2,0667.4,31.0
2021-06-21T08:47:00Z,00000200,01000000,0001.46,0000.52,0000.13,0000.01,-000.01,-000.15,0013.06,0011.71,0008.82,17.4,24.0,01.9,01.3,0667.4,31.0
2021-06-21T08:48:00Z,00000200,01000000,0000.83,0000.35,0000.29,0000.10,0000.17,0000.39,0015.02,0013.60,0010.36,17.5,24.1,01.9,01.3,0667.4,31.0
2021-06-21T08:49:00Z,00000200,01000000,0001.59,0000.60,0000.43,0000.58,0000.12,0000.12,0014.56,0013.26,0010.32,17.5,24.1,01.9,01.2,0667.4,31.0
2021-06-21T08:50:00Z,00000200,01000000,0000.50,0000.68,0000.15,0000.03,0000.08,-000.22,0011.56,0010.56,0008.15,17.5,24.1,01.9,01.3,0667.4,31.0
2021-06-21T08:51:00Z,00000200,01000000,0001.58,0000.67,0000.39,-000.05,0000.16,0000.25,0014.82,0013.30,0009.56,17.5,24.0,01.8,01.2,0667.4,31.0
2021-06-21T08:52:00Z,00000200,00000000,0001.06,0000.71,-000.29,0000.29,0000.14,0000.04,0017.01,0015.50,0012.34,17.4,24.0,02.0,01.3,0667.4,31.0
2021-06-21T08:53:00Z,00000200,00000000,0000.55,0000.45,0000.29,0000.26,0000.15,-000.06,0016.02,0014.10,0010.60,17.4,24.0,01.9,01.3,0667.4,31.0
2021-06-21T08:54:00Z,00000200,00000000,0001.74,0001.01,0000.54,0000.14,0000.38,0000.33,0024.89,0022.84,0017.14,17.4,24.0,02.2,01.5,0667.4,31.0
2021-06-21T08:55:00Z,00000200,00000000,0001.41,0000.54,0000.51,-000.20,0000.31,-000.05,0017.52,0015.82,0012.66,17.3,24.0,02.2,01.5,0667.4,30.9
2021-06-21T08:56:00Z,00000200,00000000,0001.74,0001.07,0000.49,0000.71,0000.50,0000.02,0029.79,0027.52,0020.66,17.3,24.0,02.3,01.5,0667.4,30.9
2021-06-21T08:57:00Z,00000200,40000000,,,,,,,0005.83,0004.78,0003.93,17.3,24.0,02.3,01.5,0667.5,31.0
2021-06-21T08:58:00Z,00000200,60000000,,,,,,,0000.76,0000.80,0000.31,17.0,24.1,02.0,01.3,0666.4,31.0
2021-06-21T08:59:00Z,00000200,20000000,,,,,,,0000.41,0000.47,0000.50,17.0,24.2,02.0,01.3,0666.4,31.0
